Regional Weather Roundup
Issued by NWS

Home | Current Version | Previous Version | Text Only | Print | Product List | Glossary On
Versions: 1 2 3 4 5 6 7 8 9 10 11 12 13 14 15 16 17 18 19 20 21 22 23 24 25 26 27 28 29 30 31 32 33 34 35 36 37 38 39 40 41 42 43 44 45 46 47 48 49 50
000
ASCA44 KEWX 292020
RWRMX

LATIN AMERICA AND CARIBBEAN REGIONAL WEATHER ROUNDUP
NATIONAL WEATHER SERVICE AUSTIN/SAN ANTONIO TX
300 PM CDT SAT AUG 29 2015

NOTE: "FAIR" INDICATED FEW OR NO CLOUDS BELOW 12,000 FEET WITH NO
SIGNIFICANT WEATHER AND/OR OBSTRUCTIONS TO VISIBILITY.

BAJA CALIFORNIA

CITY           SKY/WX    TMP DP  RH WIND       PRES   REMARKS
LORETO         MOSUNNY   97  75  49 CALM      29.79F HX 109
LA PAZ         MOSUNNY  100  63  28 N14       29.82F HX 102
MEXICALI       SUNNY    108  50  14 E2        29.77F HX 104
S.J. DEL CABO  MOSUNNY   97  68  38 SE12      29.85F HX 101
TIJUANA        SUNNY     88  61  40 W14       29.92F

NORTHWESTERN MEXICO

CITY           SKY/WX    TMP DP  RH WIND       PRES   REMARKS
CULIACAN       PTSUNNY   95  79  59 CALM      29.85F HX 112
DURANGO        SUNNY     68  28  22 NE7       30.24F
GUAYMAS        MOSUNNY  100  81  53 CALM      29.77  HX 122
HERMOSILLO     MOSUNNY  104  66  29 W5        29.86F HX 109
CD. JUAREZ     MOSUNNY   88  59  37 E13       30.00F
LOS MOCHIS     MOSUNNY   97  68  38 SW12      29.84F HX 101
OBREGON        PTSUNNY  100  68  34 W5        29.80F HX 106

NORTHEASTERN MEXICO

CITY           SKY/WX    TMP DP  RH WIND       PRES   REMARKS
CHIHUAHUA      PTSUNNY   88  46  23 N5        30.16F
MATAMOROS      PTSUNNY   93  73  52 NE9       30.01S HX 102
MONCLOVA         N/A    N/A N/A N/A MISG        N/A
MONTERREY      MOSUNNY   91  57  31 E8        29.98F HX  90
NUEVO LAREDO   SUNNY     97  66  36 CALM      29.97F HX 100
PIEDRAS NEGRAS SUNNY     95  70  43 SE6       30.01F HX 101
REYNOSA        MOSUNNY   90  63  40 SE2       29.96F HX  90
SALTILLO       SUNNY     84  63  48 N12       30.19F
TORREON        SUNNY     90  41  18 CALM      30.10F
CD. VICTORIA   MOSUNNY   95  54  24 E9        29.96F HX  93

WESTERN MEXICO

CITY           SKY/WX    TMP DP  RH WIND       PRES   REMARKS
AGUASCALIENTES SUNNY     79  36  21 NW5       30.24F
COLIMA         MOSUNNY   84  73  70 W14       29.97F HX  91
DEL BAJIO      MOSUNNY   81  46  30 SE6       30.26F
GUADALAJARA    SUNNY     81  48  32 E5        30.16F
MANZANILLO     SUNNY     91  79  66 SW9       29.80F HX 107
MAZATLAN       MOSUNNY   90  79  70 S12       29.82F HX 105
P. VALLARTA    MOSUNNY   90  79  70 SW12      29.83F HX 105
URUAPAN        PTSUNNY   73  63  68 S9        30.16F
ZACATECAS      MOSUNNY   79  41  25 N17       30.28F

CENTRAL MEXICO

CITY           SKY/WX    TMP DP  RH WIND       PRES   REMARKS
CUERNAVACA     PTSUNNY   81  61  50 CALM      30.09F
MEXICO CITY    CLOUDY    72  48  43 E6        30.30F
MORELIA        MOSUNNY   75  52  43 CALM      30.22F
POZA RICA      PTSUNNY   88  79  74 SE7       29.97F HX 102
PUEBLA         CLOUDY    72  50  46 S3        30.30F
QUERETARO      PTSUNNY   75  54  46 NE6       30.29F
S. LUIS POTOSI MOSUNNY   79  46  31 NE9       30.23F
TAMPICO        MOSUNNY   90  70  51 NE9       29.95F HX  95
TOLUCA         PTSUNNY   70  48  46 NE13      30.36F

SOUTHERN MEXICO

CITY           SKY/WX    TMP DP  RH WIND       PRES   REMARKS
ACAPULCO       MOSUNNY   90  77  66 SW12      29.81F HX 102
B. DE HUATULCO MOSUNNY   91  75  59 W12       29.88F HX 102
OAXACA         CLOUDY    79  55  44 NW3       30.15F
P. ESCONDIDO   PTSUNNY   88  73  62 S8        29.91F HX  96
VERACRUZ       MOSUNNY   86  75  70 N13       29.94F HX  95
ZIHUATANEJO    MOSUNNY   93  77  59 SW12      29.83F HX 107

YUCATAN PENINSULA

CITY           SKY/WX    TMP DP  RH WIND       PRES   REMARKS
CAMPECHE       PTSUNNY   90  77  66 E12       29.89F HX 102
CANCUN         MOSUNNY   90  77  66 E8        29.92F HX 102
CHETUMAL       MOSUNNY   91  77  62 CALM      29.89F HX 105
CD. DEL CARMEN MOSUNNY   86  75  70 NE12      29.91F HX  95
COZUMEL        MOSUNNY   86  68  54 NE23      29.92F
MERIDA         PTSUNNY   93  73  52 E10       29.91F HX 102
MINATITLAN     PTSUNNY   81  73  78 N12       29.88F
TAPACHULA      MOSUNNY   90  81  74 SW9       29.81F HX 108
TUX. GUTIERREZ MOSUNNY   90  66  45 SW12G23   29.88F HX  92
VILLAHERMOSA   PTSUNNY   88  75  66 N8        29.91F HX  97

CENTRAL AMERICA

CITY           SKY/WX    TMP DP  RH WIND       PRES   REMARKS
BELIZE CITY    MOSUNNY   91  79  66 E8        29.88F HX 107
MANAGUA        PTCLDY    95  72  46 E18       29.74F HX 103

CARIBBEAN

CITY           SKY/WX    TMP DP  RH WIND       PRES   REMARKS
ARUBA          MOSUNNY   90  77  66 E23       29.80S HX 102
KINGSTON       MOSUNNY   90  77  66 SE24      29.86F HX 102
NASSAU         PTSUNNY   88  77  70 SE21      29.98F HX 100
SAN JUAN       MOSUNNY   88  77  70 NE18      29.98F HX 100
SANTO DOMINGO  PTSUNNY   84  77  79 SE9       29.94S HX  94
ST. CROIX      MOSUNNY   90  75  62 E20       29.97F HX 100
ST. KITTS      MOSUNNY   84  77  79 NE15      29.97S HX  94
ST. MAARTEN    MOSUNNY   86  75  70 E12       29.97S HX  95
ST. THOMAS     MOSUNNY   91  73  55 E18G24    29.97F HX 100

$$



USA.gov is the U.S. government's official web portal to all federal, state and local government web resources and services.